GW0795 Weather Reports


time (UTC)temp
C
wind
direction
speed
KPH
gust
KPH
rain 1hr
cm
rain 24hr
cm
rain mn
cm
humidity
%
barometer
mb
20260503215507 25 200 4.8 14.5 0.00 0.00 0.00 41 1011.6
20260503215006 25 243 4.8 14.5 0.00 0.00 0.00 40 1011.7
20260503214515 25 294 3.2 12.9 0.00 0.00 0.00 40 1011.7
20260503214003 25 289 4.8 12.9 0.00 0.00 0.00 40 1011.8
20260503213503 25 300 6.4 12.9 0.00 0.00 0.00 40 1011.8
20260503213008 25 294 3.2 11.3 0.00 0.00 0.00 40 1011.9
20260503212504 25 309 4.8 12.9 0.00 0.00 0.00 41 1011.9
20260503212003 25 262 6.4 12.9 0.00 0.00 0.00 43 1012.0
20260503211507 25 352 4.8 12.9 0.00 0.00 0.00 41 1012.0
20260503211004 25 44 3.2 9.7 0.00 0.00 0.00 42 1012.0
20260503210506 25 123 4.8 12.9 0.00 0.00 0.00 42 1012.1
20260503210013 25 281 3.2 14.5 0.00 0.00 0.00 41 1012.1
20260503205507 25 340 6.4 14.5 0.00 0.00 0.00 41 1012.2
20260503205008 24 352 6.4 12.9 0.00 0.00 0.00 42 1012.2
20260503204516 25 308 6.4 12.9 0.00 0.00 0.00 40 1012.2
20260503204009 25 300 3.2 12.9 0.00 0.00 0.00 43 1012.3
20260503203506 25 352 4.8 12.9 0.00 0.00 0.00 43 1012.4
20260503203027 25 69 4.8 12.9 0.00 0.00 0.00 42 1012.4
20260503202504 25 299 4.8 12.9 0.00 0.00 0.00 43 1012.4
20260503202004 25 15 3.2 12.9 0.00 0.00 0.00 44 1012.5
20260503201508 24 18 4.8 12.9 0.00 0.00 0.00 43 1012.6
20260503201006 24 271 3.2 12.9 0.00 0.00 0.00 46 1012.6
20260503200503 23 298 4.8 12.9 0.00 0.00 0.00 45 1012.6
20260503200011 23 39 3.2 12.9 0.00 0.00 0.00 47 1012.8
20260503195505 24 46 4.8 11.3 0.00 0.00 0.00 46 1012.8
20260503195007 24 325 3.2 11.3 0.00 0.00 0.00 47 1012.8
20260503194517 23 28 6.4 11.3 0.00 0.00 0.00 46 1012.8
20260503194007 23 306 6.4 12.9 0.00 0.00 0.00 46 1013.0
20260503193508 23 266 4.8 12.9 0.00 0.00 0.00 47 1013.1
20260503193021 23 302 4.8 9.7 0.00 0.00 0.00 46 1013.1
20260503192506 23 339 4.8 14.5 0.00 0.00 0.00 47 1013.1
20260503192007 23 17 6.4 14.5 0.00 0.00 0.00 47 1013.2
20260503191521 23 266 3.2 12.9 0.00 0.00 0.00 49 1013.2
20260503191007 23 9 3.2 11.3 0.00 0.00 0.00 48 1013.3
20260503190504 23 360 4.8 11.3 0.00 0.00 0.00 48 1013.4
20260503190007 23 245 1.6 12.9 0.00 0.00 0.00 47 1013.5
20260503185503 23 288 3.2 12.9 0.00 0.00 0.00 50 1013.5
20260503185004 23 9 1.6 12.9 0.00 0.00 0.00 48 1013.5
20260503184514 23 29 6.4 12.9 0.00 0.00 0.00 47 1013.6
20260503184004 22 279 1.6 12.9 0.00 0.00 0.00 50 1013.7
20260503183507 22 5 4.8 14.5 0.00 0.00 0.00 48 1013.8
20260503183034 22 9 4.8 16.1 0.00 0.00 0.00 50 1013.8
20260503182507 22 5 4.8 16.1 0.00 0.00 0.00 49 1013.8
20260503182011 22 16 4.8 14.5 0.00 0.00 0.00 50 1013.8
20260503181524 22 81 6.4 14.5 0.00 0.00 0.00 50 1013.9
20260503181007 22 46 3.2 9.7 0.00 0.00 0.00 52 1013.9
20260503180508 21 32 4.8 11.3 0.00 0.00 0.00 53 1013.9
20260503180024 22 63 4.8 16.1 0.00 0.00 0.00 53 1013.8
20260503175506 22 28 3.2 16.1 0.00 0.00 0.00 52 1013.9
20260503175004 21 5 4.8 14.5 0.00 0.00 0.00 54 1013.9
20260503174513 21 30 4.8 14.5 0.00 0.00 0.00 52 1013.9
20260503174008 21 303 4.8 14.5 0.00 0.00 0.00 53 1013.9
20260503173510 21 53 3.2 9.7 0.00 0.00 0.00 53 1014.0
20260503173018 21 336 4.8 8.0 0.00 0.00 0.00 53 1014.0
20260503172506 21 55 3.2 8.0 0.00 0.00 0.00 54 1014.1
20260503172007 21 38 3.2 9.7 0.00 0.00 0.00 54 1014.1
20260503171520 20 69 4.8 9.7 0.00 0.00 0.00 53 1014.1
20260503171006 20 348 4.8 9.7 0.00 0.00 0.00 54 1014.1
20260503170511 20 21 3.2 12.9 0.00 0.00 0.00 54 1014.1
20260503151004 17 30 4.8 9.7 0.00 0.00 0.00 61 1014.2
20260503150503 17 352 3.2 8.0 0.00 0.00 0.00 62 1014.2
20260503131010 11 5 0.0 0.0 0.00 0.00 0.00 79 1014.2
20260503130506 11 5 0.0 0.0 0.00 0.00 0.00 79 1014.1
20260503110504 12 5 0.0 0.0 0.00 0.00 0.00 74 1014.2
20260503090510 13 53 0.0 0.0 0.00 0.00 0.00 69 1014.5
20260503081532 16 9 0.0 3.2 0.00 0.00 0.00 58 1014.6
20260503081010 16 9 0.0 3.2 0.00 0.00 0.00 56 1014.5
20260503080509 16 9 0.0 3.2 0.00 0.00 0.00 54 1014.5
20260503072507 17 51 1.6 4.8 0.00 0.00 0.00 52 1014.5
20260503072003 17 60 0.0 3.2 0.00 0.00 0.00 52 1014.5
20260503071507 17 27 1.6 3.2 0.00 0.00 0.00 51 1014.4
20260503071004 17 28 0.0 3.2 0.00 0.00 0.00 51 1014.4
20260503070505 17 331 0.0 3.2 0.00 0.00 0.00 51 1014.4
20260503055003 17 19 0.0 6.4 0.00 0.00 0.00 51 1014.3
20260503054513 17 9 3.2 6.4 0.00 0.00 0.00 51 1014.3
20260503054009 17 9 0.0 6.4 0.00 0.00 0.00 53 1014.2
20260503053506 17 19 1.6 4.8 0.00 0.00 0.00 54 1014.2
20260503053015 17 351 0.0 3.2 0.00 0.00 0.00 56 1014.3
20260503052506 17 352 0.0 3.2 0.00 0.00 0.00 56 1014.3
20260503052010 17 339 1.6 3.2 0.00 0.00 0.00 56 1014.2
20260503051519 17 350 0.0 3.2 0.00 0.00 0.00 58 1014.2
20260503051009 17 5 0.0 3.2 0.00 0.00 0.00 57 1014.3
20260503050507 17 9 0.0 0.0 0.00 0.00 0.00 58 1014.3
20260503050033 17 9 0.0 1.6 0.00 0.00 0.00 58 1014.3
20260503045507 17 9 0.0 1.6 0.00 0.00 0.00 57 1014.3
20260503045005 17 5 0.0 3.2 0.00 0.00 0.00 57 1014.3
20260503044506 17 5 0.0 3.2 0.00 0.00 0.00 58 1014.3
20260503044004 17 5 0.0 3.2 0.00 0.00 0.00 57 1014.3
20260503043504 18 5 0.0 3.2 0.00 0.00 0.00 58 1014.2
20260503043017 18 5 0.0 3.2 0.00 0.00 0.00 58 1014.1
20260503042506 18 15 0.0 3.2 0.00 0.00 0.00 58 1014.0
20260503042006 18 50 0.0 3.2 0.00 0.00 0.00 58 1014.0
20260503041516 18 23 0.0 3.2 0.00 0.00 0.00 58 1014.0
20260503041005 18 23 0.0 3.2 0.00 0.00 0.00 58 1013.9
20260503040511 18 350 1.6 3.2 0.00 0.00 0.00 58 1013.9
20260503040029 18 351 0.0 3.2 0.00 0.00 0.00 57 1013.9
20260503035510 18 346 1.6 3.2 0.00 0.00 0.00 56 1013.8
20260503035009 18 336 0.0 3.2 0.00 0.00 0.00 56 1013.7
20260503034534 18 19 0.0 3.2 0.00 0.00 0.00 57 1013.6
20260503034008 18 20 0.0 3.2 0.00 0.00 0.00 55 1013.5
20260503033507 19 36 0.0 4.8 0.00 0.00 0.00 56 1013.5
20260503033008 19 36 1.6 6.4 0.00 0.00 0.00 55 1013.4
20260503032505 19 14 1.6 6.4 0.00 0.00 0.00 54 1013.3
20260503032006 20 9 1.6 8.0 0.00 0.00 0.00 53 1013.4
20260503031512 20 22 3.2 8.0 0.00 0.00 0.00 53 1013.3
20260503031013 20 15 3.2 6.4 0.00 0.00 0.00 54 1013.3
20260503030506 20 19 3.2 6.4 0.00 0.00 0.00 54 1013.2
20260503030016 20 100 1.6 8.0 0.00 0.00 0.00 54 1013.2
20260503025506 20 26 1.6 8.0 0.00 0.00 0.00 53 1013.1
20260503025012 20 22 4.8 12.9 0.00 0.00 0.00 52 1013.1
20260503024523 21 10 3.2 12.9 0.00 0.00 0.00 52 1013.0
20260503024009 21 49 3.2 14.5 0.00 0.00 0.00 52 1012.9
20260503023511 21 338 4.8 14.5 0.00 0.00 0.00 51 1012.9
20260503023026 21 341 6.4 12.9 0.00 0.00 0.00 51 1012.8
20260503022509 21 13 1.6 11.3 0.00 0.00 0.00 51 1012.9
20260503022005 21 321 1.6 11.3 0.00 0.00 0.00 51 1012.9
20260503021509 21 325 3.2 12.9 0.00 0.00 0.00 50 1012.8
20260503021005 21 346 1.6 12.9 0.00 0.00 0.00 50 1012.8
20260503020505 21 38 4.8 11.3 0.00 0.00 0.00 49 1012.9
20260503020016 22 5 4.8 14.5 0.00 0.00 0.00 49 1012.9
20260503015508 22 346 1.6 14.5 0.00 0.00 0.00 49 1012.9
20260503015009 22 39 3.2 14.5 0.00 0.00 0.00 50 1012.9
20260503014536 22 26 6.4 14.5 0.00 0.00 0.00 49 1012.9
20260503014008 22 333 6.4 12.9 0.00 0.00 0.00 49 1012.9
20260503013513 22 38 4.8 12.9 0.00 0.00 0.00 48 1013.0
20260503013026 22 312 1.6 14.5 0.00 0.00 0.00 48 1013.0
20260503012509 22 27 8.0 14.5 0.00 0.00 0.00 47 1013.1
20260503012009 22 5 3.2 9.7 0.00 0.00 0.00 48 1013.1
20260503011528 22 37 4.8 11.3 0.00 0.00 0.00 47 1013.1
20260503011008 22 34 4.8 14.5 0.00 0.00 0.00 47 1013.1
20260503010507 22 329 6.4 14.5 0.00 0.00 0.00 46 1013.1
20260503010014 22 42 4.8 16.1 0.00 0.00 0.00 45 1013.0
20260503005506 22 36 4.8 16.1 0.00 0.00 0.00 46 1013.1
20260503005006 22 21 6.4 19.3 0.00 0.00 0.00 46 1013.2
20260503004517 22 350 6.4 19.3 0.00 0.00 0.00 47 1013.2
20260503004007 22 9 11.3 17.7 0.00 0.00 0.00 45 1013.2
20260503003506 22 16 6.4 14.5 0.00 0.00 0.00 46 1013.2
20260503003021 22 352 3.2 14.5 0.00 0.00 0.00 46 1013.1
20260503002510 22 327 6.4 14.5 0.00 0.00 0.00 47 1013.2
20260503002014 22 352 6.4 14.5 0.00 0.00 0.00 46 1013.2
20260503001508 22 320 6.4 16.1 0.00 0.00 0.00 46 1013.2
20260503001008 22 9 4.8 16.1 0.00 0.00 0.00 47 1013.2
20260503000509 22 22 8.0 14.5 0.00 0.00 0.00 46 1013.3
20260503000015 22 53 6.4 12.9 0.00 0.00 0.00 47 1013.4
20260502235504 22 336 1.6 19.3 0.00 0.00 0.00 48 1013.4
20260502235004 22 23 8.0 19.3 0.00 0.00 0.00 48 1013.5
20260502234516 22 294 8.0 16.1 0.00 0.00 0.00 47 1013.5
20260502234009 22 24 3.2 16.1 0.00 0.00 0.00 47 1013.6
20260502233502 22 44 6.4 16.1 0.00 0.00 0.00 46 1013.7
20260502233002 22 5 3.2 14.5 0.00 0.00 0.00 47 1013.8
20260502232503 22 336 6.4 22.5 0.00 0.00 0.00 47 1013.8
20260502232001 22 308 8.0 22.5 0.00 0.00 0.00 45 1013.9
20260502231506 22 30 6.4 19.3 0.00 0.00 0.00 45 1014.0
20260502231006 22 345 6.4 19.3 0.00 0.00 0.00 45 1014.0
20260502230509 22 34 9.7 19.3 0.00 0.00 0.00 44 1014.1
20260502230011 22 17 9.7 20.9 0.00 0.00 0.00 45 1014.1
20260502225505 22 28 4.8 20.9 0.00 0.00 0.00 43 1014.2
20260502225007 22 352 4.8 19.3 0.00 0.00 0.00 44 1014.3
20260502224517 22 13 4.8 19.3 0.00 0.00 0.00 47 1014.4
20260502224004 22 335 4.8 14.5 0.00 0.00 0.00 46 1014.4
20260502223508 22 29 6.4 12.9 0.00 0.00 0.00 49 1014.5
20260502223020 22 57 6.4 16.1 0.00 0.00 0.00 50 1014.5
20260502222508 22 13 8.0 17.7 0.00 0.00 0.00 50 1014.6
20260502222002 22 18 9.7 17.7 0.00 0.00 0.00 51 1014.6
20260502221506 22 15 4.8 12.9 0.00 0.00 0.00 51 1014.6
20260502221002 22 296 3.2 12.9 0.00 0.00 0.00 51 1014.7
20260502220506 22 352 4.8 12.9 0.00 0.00 0.00 54 1014.7
20260502220007 22 73 4.8 11.3 0.00 0.00 0.00 54 1014.7